Starlink 33834

operational
NORAD ID: 63586 Int'l Des: 2025-076 Owner: SPXS Country: US Constellation: starlink
LEOCIRCULAR

Über Starlink 33834

Beschreibung wird geladen...

Live-Position

3D-Globus wird geladen...

Nächste Überflüge

Höhenverlauf

Altitude vs Time

uPlot chart will show altitude changes over time

Zweizeiliger Elementsatz

1 63586U 25076T 25258.60822368 .00033514 00000-0 12215-2 0 9994
2 63586 42.9972 230.4853 0000436 224.3880 135.6937 15.27589307 25051
Epoch: 15. Sept. 2025 • Age: 9 hours

Aktueller Status

Höhe 485.9 km
Geschwindigkeit 7.62 km/s
Subsatellitenpunkt -14.86°S, 142.09°W
Startdatum 14. Apr. 2025
Alter 0.4 years
Typ internet

Technische Details

Klassifizierung Payload
Masse 575.00 kg
Trockenmasse 530.00 kg
Gesamtmasse 575.00 kg
Länge 0.30 m
Durchmesser 4.10 m
Spannweite 29.00 m
Form Box + pan
Hersteller SPXS
Bus-Typ Starlink V2MO
Phasenstatus In Orbit
Besitzer/Staat SPXS/US

Große Konstellationen

Loading constellations...